TimeCST,TemperatureF,Dew PointF,Humidity,Sea Level PressureIn,VisibilityMPH,Wind Direction,Wind SpeedMPH,Gust SpeedMPH,PrecipitationIn,Events,Conditions,WindDirDegrees,DateUTC
12:38 AM,6.8,1.4,79,30.14,10.0,WSW,6.9,-,N/A,,Mostly Cloudy,250,2013-01-02 06:38:00
12:53 AM,9.0,1.0,70,30.18,10.0,WSW,8.1,-,N/A,,Overcast,250,2013-01-02 06:53:00
1:53 AM,10.9,1.9,67,30.19,10.0,WSW,9.2,-,N/A,,Overcast,240,2013-01-02 07:53:00
2:53 AM,12.9,3.9,67,30.20,10.0,WSW,8.1,-,N/A,,Overcast,240,2013-01-02 08:53:00
3:53 AM,14.0,6.1,71,30.18,10.0,WSW,5.8,-,N/A,,Overcast,240,2013-01-02 09:53:00
4:53 AM,15.1,7.0,70,30.18,10.0,WSW,6.9,-,N/A,,Overcast,240,2013-01-02 10:53:00
5:53 AM,15.1,8.1,74,30.19,10.0,WSW,5.8,-,N/A,,Overcast,250,2013-01-02 11:53:00
6:53 AM,16.0,9.0,74,30.19,10.0,Calm,Calm,-,N/A,,Overcast,0,2013-01-02 12:53:00
7:53 AM,17.1,10.0,74,30.20,10.0,SW,4.6,-,N/A,,Overcast,230,2013-01-02 13:53:00
9:08 AM,19.4,12.2,74,30.16,10.0,SW,3.5,-,N/A,,Scattered Clouds,230,2013-01-02 15:08:00
9:53 AM,21.0,12.0,68,30.21,10.0,SW,6.9,-,N/A,,Clear,230,2013-01-02 15:53:00
10:53 AM,28.0,12.9,53,30.19,-9999.0,SSW,9.2,-,N/A,,Partly Cloudy,200,2013-01-02 16:53:00
11:53 AM,24.1,10.9,57,30.16,10.0,SSW,8.1,-,N/A,,Clear,210,2013-01-02 17:53:00
12:53 PM,26.1,10.9,53,30.12,10.0,South,11.5,-,N/A,,Clear,190,2013-01-02 18:53:00
1:53 PM,27.0,10.0,49,30.11,10.0,SSW,11.5,-,N/A,,Clear,210,2013-01-02 19:53:00
2:53 PM,27.0,10.9,51,30.11,10.0,South,9.2,-,N/A,,Clear,190,2013-01-02 20:53:00
3:53 PM,27.0,10.9,51,30.11,10.0,SSW,6.9,-,N/A,,Clear,200,2013-01-02 21:53:00
4:53 PM,24.1,10.9,57,30.11,10.0,South,4.6,-,N/A,,Clear,170,2013-01-02 22:53:00
5:53 PM,24.1,12.0,60,30.12,10.0,South,5.8,-,N/A,,Mostly Cloudy,180,2013-01-02 23:53:00
6:53 PM,27.0,14.0,58,30.11,10.0,SSW,10.4,-,N/A,,Overcast,200,2013-01-03 00:53:00
7:53 PM,25.0,14.0,63,30.10,10.0,SSW,10.4,-,N/A,,Overcast,210,2013-01-03 01:53:00
8:53 PM,23.0,14.0,68,30.11,10.0,SW,9.2,-,N/A,,Clear,220,2013-01-03 02:53:00
9:53 PM,23.0,15.1,72,30.09,10.0,SW,6.9,-,N/A,,Mostly Cloudy,230,2013-01-03 03:53:00
10:53 PM,24.1,16.0,71,30.09,10.0,SW,9.2,-,N/A,,Overcast,220,2013-01-03 04:53:00
11:53 PM,25.0,16.0,69,30.08,10.0,SW,11.5,-,N/A,,Overcast,230,2013-01-03 05:53:00